Time,TemperatureF,DewpointF,PressureIn,WindDirection,WindDirectionDegrees,WindSpeedMPH,WindSpeedGustMPH,Humidity,HourlyPrecipIn,Conditions,Clouds,dailyrainin,SoftwareType,DateUTC
2013-06-03 00:22:00,82.0,38.0,29.56,NW,310,24.0,34.0,21,0.00,,,-99.99,,2013-06-03 07:22:00,
2013-06-03 00:32:00,82.0,38.0,29.56,NW,310,24.0,34.0,21,0.00,,,-99.99,,2013-06-03 07:32:00,
2013-06-03 00:42:00,82.0,38.0,29.56,NW,310,24.0,34.0,21,0.00,,,-99.99,,2013-06-03 07:42:00,
2013-06-03 01:22:00,78.0,44.0,29.56,NW,310,20.0,28.0,30,0.00,,,-99.99,,2013-06-03 08:22:00,
2013-06-03 01:32:00,78.0,44.0,29.56,NW,310,20.0,28.0,30,0.00,,,-99.99,,2013-06-03 08:32:00,
2013-06-03 01:42:00,78.0,44.0,29.56,NW,310,20.0,28.0,30,0.00,,,-99.99,,2013-06-03 08:42:00,
2013-06-03 02:22:00,77.0,43.0,29.55,NW,310,12.0,24.0,30,0.00,,,-99.99,,2013-06-03 09:22:00,
2013-06-03 02:33:00,77.0,43.0,29.55,NW,310,12.0,24.0,30,0.00,,,-99.99,,2013-06-03 09:33:00,
2013-06-03 02:42:00,77.0,43.0,29.55,NW,310,12.0,24.0,30,0.00,,,-99.99,,2013-06-03 09:42:00,
2013-06-03 03:22:00,76.0,45.0,29.55,NW,310,20.0,29.0,33,0.00,,,-99.99,,2013-06-03 10:22:00,
2013-06-03 03:33:00,76.0,45.0,29.55,NW,310,20.0,29.0,33,0.00,,,-99.99,,2013-06-03 10:33:00,
2013-06-03 03:42:00,76.0,45.0,29.55,NW,310,20.0,29.0,33,0.00,,,-99.99,,2013-06-03 10:42:00,
2013-06-03 04:22:00,75.0,42.0,29.56,NW,320,16.0,20.0,31,0.00,,,-99.99,,2013-06-03 11:22:00,
2013-06-03 04:32:00,75.0,42.0,29.56,NW,320,16.0,20.0,31,0.00,,,-99.99,,2013-06-03 11:32:00,
2013-06-03 04:42:00,75.0,42.0,29.56,NW,320,16.0,20.0,31,0.00,,,-99.99,,2013-06-03 11:42:00,
2013-06-03 04:52:00,75.0,42.0,29.56,NW,320,16.0,20.0,31,0.00,,,-99.99,,2013-06-03 11:52:00,
2013-06-03 05:22:00,74.0,45.0,29.57,NW,310,17.0,24.0,35,0.00,,,-99.99,,2013-06-03 12:22:00,
2013-06-03 05:32:00,74.0,45.0,29.57,NW,310,17.0,24.0,35,0.00,,,-99.99,,2013-06-03 12:32:00,
2013-06-03 05:42:00,74.0,45.0,29.57,NW,310,17.0,24.0,35,0.00,,,-99.99,,2013-06-03 12:42:00,
2013-06-03 06:22:00,72.0,44.0,29.59,NW,310,16.0,30.0,36,0.00,,,-99.99,,2013-06-03 13:22:00,
2013-06-03 06:32:00,72.0,44.0,29.59,NW,310,16.0,30.0,36,0.00,,,-99.99,,2013-06-03 13:32:00,
2013-06-03 06:42:00,72.0,44.0,29.59,NW,310,16.0,30.0,36,0.00,,,-99.99,,2013-06-03 13:42:00,
2013-06-03 07:22:00,74.0,41.0,29.62,NW,310,10.0,21.0,31,0.00,,,-99.99,,2013-06-03 14:22:00,
2013-06-03 07:32:00,74.0,41.0,29.62,NW,310,10.0,21.0,31,0.00,,,-99.99,,2013-06-03 14:32:00,
2013-06-03 07:42:00,74.0,41.0,29.62,NW,310,10.0,21.0,31,0.00,,,-99.99,,2013-06-03 14:42:00,
2013-06-03 07:43:00,78.0,42.0,29.64,NW,310,12.0,28.0,28,0.00,,,-99.99,,2013-06-03 14:43:00,
2013-06-03 08:22:00,78.0,42.0,29.64,NW,310,12.0,28.0,28,0.00,,,-99.99,,2013-06-03 15:22:00,
2013-06-03 08:33:00,78.0,42.0,29.64,NW,310,12.0,28.0,28,0.00,,,-99.99,,2013-06-03 15:33:00,
2013-06-03 09:23:00,82.0,45.0,29.66,WNW,300,15.0,25.0,27,0.00,,,-99.99,,2013-06-03 16:23:00,
2013-06-03 09:33:00,82.0,45.0,29.66,WNW,300,15.0,25.0,27,0.00,,,-99.99,,2013-06-03 16:33:00,
2013-06-03 09:42:00,82.0,45.0,29.66,WNW,300,15.0,25.0,27,0.00,,,-99.99,,2013-06-03 16:42:00,
2013-06-03 09:52:00,84.0,45.0,29.67,WNW,290,16.0,36.0,26,0.00,,,-99.99,,2013-06-03 16:52:00,
2013-06-03 10:22:00,84.0,45.0,29.67,WNW,290,16.0,36.0,26,0.00,,,-99.99,,2013-06-03 17:22:00,
2013-06-03 10:33:00,84.0,45.0,29.67,WNW,290,16.0,36.0,26,0.00,,,-99.99,,2013-06-03 17:33:00,
2013-06-03 10:42:00,84.0,45.0,29.67,WNW,290,16.0,36.0,26,0.00,,,-99.99,,2013-06-03 17:42:00,
2013-06-03 11:22:00,88.0,43.0,29.68,WNW,300,16.0,24.0,21,0.00,,,-99.99,,2013-06-03 18:22:00,
2013-06-03 11:32:00,88.0,43.0,29.68,WNW,300,16.0,24.0,21,0.00,,,-99.99,,2013-06-03 18:32:00,
2013-06-03 11:42:00,88.0,43.0,29.68,WNW,300,16.0,24.0,21,0.00,,,-99.99,,2013-06-03 18:42:00,
2013-06-03 12:22:00,91.0,42.0,29.67,WNW,290,15.0,23.0,18,0.00,,,-99.99,,2013-06-03 19:22:00,
2013-06-03 12:32:00,91.0,42.0,29.67,WNW,290,15.0,23.0,18,0.00,,,-99.99,,2013-06-03 19:32:00,
2013-06-03 13:22:00,95.0,38.0,29.66,North,0,0.0,11.0,14,0.00,,,-99.99,,2013-06-03 20:22:00,
2013-06-03 13:32:00,95.0,38.0,29.66,North,0,0.0,11.0,14,0.00,,,-99.99,,2013-06-03 20:32:00,
2013-06-03 13:42:00,95.0,38.0,29.66,North,0,0.0,11.0,14,0.00,,,-99.99,,2013-06-03 20:42:00,
2013-06-03 13:43:00,96.0,41.0,29.65,West,260,8.0,15.0,15,0.00,,,-99.99,,2013-06-03 20:43:00,
2013-06-03 14:22:00,96.0,41.0,29.65,West,260,8.0,15.0,15,0.00,,,-99.99,,2013-06-03 21:22:00,
2013-06-03 14:33:00,96.0,41.0,29.65,West,260,8.0,15.0,15,0.00,,,-99.99,,2013-06-03 21:33:00,
2013-06-03 15:22:00,98.0,42.0,29.63,West,260,28.0,28.0,15,0.00,,,-99.99,,2013-06-03 22:22:00,
2013-06-03 15:32:00,98.0,42.0,29.63,West,260,28.0,28.0,15,0.00,,,-99.99,,2013-06-03 22:32:00,
2013-06-03 15:42:00,98.0,42.0,29.63,West,260,28.0,28.0,15,0.00,,,-99.99,,2013-06-03 22:42:00,
2013-06-03 16:22:00,98.0,44.0,29.61,West,270,7.0,20.0,16,0.00,,,-99.99,,2013-06-03 23:22:00,
2013-06-03 16:32:00,98.0,44.0,29.61,West,270,7.0,20.0,16,0.00,,,-99.99,,2013-06-03 23:32:00,
2013-06-03 16:42:00,97.0,42.0,29.60,West,280,12.0,30.0,15,0.00,,,-99.99,,2013-06-03 23:42:00,
2013-06-03 17:22:00,97.0,42.0,29.60,West,280,12.0,30.0,15,0.00,,,-99.99,,2013-06-04 00:22:00,
2013-06-03 17:32:00,97.0,42.0,29.60,West,280,12.0,30.0,15,0.00,,,-99.99,,2013-06-04 00:32:00,
2013-06-03 18:22:00,97.0,42.0,29.60,WNW,290,12.0,31.0,15,0.00,,,-99.99,,2013-06-04 01:22:00,
2013-06-03 18:32:00,97.0,42.0,29.60,WNW,290,12.0,31.0,15,0.00,,,-99.99,,2013-06-04 01:32:00,
2013-06-03 18:42:00,97.0,42.0,29.60,WNW,290,12.0,31.0,15,0.00,,,-99.99,,2013-06-04 01:42:00,
2013-06-03 19:22:00,93.0,46.0,29.60,WNW,290,14.0,42.0,20,0.00,,,-99.99,,2013-06-04 02:22:00,
2013-06-03 19:32:00,93.0,46.0,29.60,WNW,290,14.0,42.0,20,0.00,,,-99.99,,2013-06-04 02:32:00,
2013-06-03 19:42:00,93.0,46.0,29.60,WNW,290,14.0,42.0,20,0.00,,,-99.99,,2013-06-04 02:42:00,
2013-06-03 19:43:00,88.0,50.0,29.62,WNW,300,15.0,38.0,27,0.00,,,-99.99,,2013-06-04 02:43:00,
2013-06-03 20:22:00,88.0,50.0,29.62,WNW,300,15.0,38.0,27,0.00,,,-99.99,,2013-06-04 03:22:00,
2013-06-03 20:32:00,88.0,50.0,29.62,WNW,300,15.0,38.0,27,0.00,,,-99.99,,2013-06-04 03:32:00,
2013-06-03 21:23:00,84.0,51.0,29.64,WNW,300,21.0,32.0,32,0.00,,,-99.99,,2013-06-04 04:23:00,
2013-06-03 21:33:00,84.0,51.0,29.64,WNW,300,21.0,32.0,32,0.00,,,-99.99,,2013-06-04 04:33:00,
2013-06-03 21:42:00,84.0,51.0,29.64,WNW,300,21.0,32.0,32,0.00,,,-99.99,,2013-06-04 04:42:00,
2013-06-03 22:22:00,81.0,49.0,29.66,NW,310,16.0,30.0,33,0.00,,,-99.99,,2013-06-04 05:22:00,
2013-06-03 22:32:00,81.0,49.0,29.66,NW,310,16.0,30.0,33,0.00,,,-99.99,,2013-06-04 05:32:00,
2013-06-03 22:42:00,81.0,49.0,29.66,NW,310,16.0,30.0,33,0.00,,,-99.99,,2013-06-04 05:42:00,
2013-06-03 23:22:00,79.0,50.0,29.66,NW,320,23.0,31.0,36,0.00,,,-99.99,,2013-06-04 06:22:00,
2013-06-03 23:32:00,79.0,50.0,29.66,NW,320,23.0,31.0,36,0.00,,,-99.99,,2013-06-04 06:32:00,
2013-06-03 23:42:00,79.0,50.0,29.66,NW,320,23.0,31.0,36,0.00,,,-99.99,,2013-06-04 06:42:00,